TimeEDT,TemperatureF,Dew PointF,Humidity,Sea Level PressureIn,VisibilityMPH,Wind Direction,Wind SpeedMPH,Gust SpeedMPH,PrecipitationIn,Events,Conditions,WindDirDegrees,DateUTC
12:15 AM,48.2,39.2,71,29.93,10.0,WSW,6.9,-,N/A,,Overcast,250,2011-10-22 04:15:00
12:35 AM,48.2,39.2,71,29.93,10.0,WSW,3.5,-,N/A,,Overcast,250,2011-10-22 04:35:00
12:55 AM,48.2,39.2,71,29.93,10.0,WSW,5.8,-,N/A,,Overcast,240,2011-10-22 04:55:00
1:15 AM,48.2,39.2,71,29.93,10.0,West,3.5,-,N/A,,Overcast,260,2011-10-22 05:15:00
1:35 AM,48.2,39.2,71,29.94,10.0,WSW,6.9,-,N/A,,Overcast,250,2011-10-22 05:35:00
1:55 AM,48.2,39.2,71,29.94,10.0,South,4.6,-,N/A,,Overcast,190,2011-10-22 05:55:00
2:15 AM,48.2,39.2,71,29.94,10.0,SSW,3.5,-,N/A,,Overcast,200,2011-10-22 06:15:00
2:35 AM,48.2,39.2,71,29.94,10.0,SE,4.6,-,N/A,,Overcast,140,2011-10-22 06:35:00
3:15 AM,46.4,39.2,76,29.94,10.0,SSE,3.5,-,N/A,,Overcast,150,2011-10-22 07:15:00
3:35 AM,46.4,39.2,76,29.94,10.0,SE,3.5,-,N/A,,Overcast,130,2011-10-22 07:35:00
3:55 AM,46.4,39.2,76,29.94,10.0,SE,3.5,-,N/A,,Overcast,140,2011-10-22 07:55:00
4:15 AM,48.2,39.2,71,29.95,10.0,WSW,3.5,-,N/A,,Overcast,240,2011-10-22 08:15:00
4:35 AM,48.2,39.2,71,29.95,10.0,SW,4.6,-,N/A,,Overcast,230,2011-10-22 08:35:00
4:55 AM,48.2,39.2,71,29.95,10.0,West,6.9,-,N/A,,Overcast,260,2011-10-22 08:55:00
5:15 AM,48.2,39.2,71,29.96,10.0,WSW,9.2,-,N/A,,Overcast,240,2011-10-22 09:15:00
5:35 AM,46.4,37.4,71,29.96,10.0,SSW,4.6,-,N/A,,Overcast,210,2011-10-22 09:35:00
5:55 AM,46.4,37.4,71,29.96,10.0,WSW,5.8,-,N/A,,Overcast,240,2011-10-22 09:55:00
6:15 AM,46.4,37.4,71,29.96,10.0,SW,4.6,-,N/A,,Overcast,220,2011-10-22 10:15:00
6:35 AM,46.4,37.4,71,29.97,10.0,SW,4.6,-,N/A,,Overcast,230,2011-10-22 10:35:00
6:55 AM,46.4,37.4,71,29.97,10.0,SSW,4.6,-,N/A,,Overcast,210,2011-10-22 10:55:00
7:15 AM,46.4,37.4,71,29.97,10.0,WSW,4.6,-,N/A,,Overcast,240,2011-10-22 11:15:00
7:36 AM,46.4,37.4,71,29.98,10.0,SSW,3.5,-,N/A,,Overcast,210,2011-10-22 11:36:00
7:55 AM,46.4,37.4,71,29.99,10.0,Calm,Calm,-,N/A,,Mostly Cloudy,0,2011-10-22 11:55:00
8:15 AM,46.4,37.4,71,30.00,10.0,Calm,Calm,-,N/A,,Overcast,0,2011-10-22 12:15:00
8:35 AM,46.4,37.4,71,30.00,10.0,SSW,4.6,-,N/A,,Overcast,210,2011-10-22 12:35:00
8:55 AM,46.4,39.2,76,30.00,10.0,WSW,3.5,-,N/A,,Overcast,250,2011-10-22 12:55:00
9:15 AM,46.4,37.4,71,30.00,10.0,WSW,4.6,-,N/A,,Overcast,250,2011-10-22 13:15:00
9:35 AM,46.4,37.4,71,30.00,10.0,West,3.5,-,N/A,,Overcast,260,2011-10-22 13:35:00
9:55 AM,48.2,37.4,66,30.00,10.0,WSW,3.5,-,N/A,,Overcast,250,2011-10-22 13:55:00
10:15 AM,48.2,37.4,66,30.00,10.0,West,6.9,-,N/A,,Overcast,260,2011-10-22 14:15:00
10:35 AM,48.2,37.4,66,30.00,10.0,WNW,5.8,-,N/A,,Overcast,300,2011-10-22 14:35:00
10:55 AM,48.2,37.4,66,30.01,10.0,SSW,3.5,-,N/A,,Overcast,210,2011-10-22 14:55:00
11:35 AM,48.2,37.4,66,30.01,10.0,WSW,6.9,-,N/A,,Overcast,250,2011-10-22 15:35:00
12:15 PM,48.2,35.6,62,30.01,10.0,West,6.9,-,N/A,,Overcast,270,2011-10-22 16:15:00
12:35 PM,48.2,37.4,66,30.00,10.0,West,8.1,-,N/A,,Overcast,260,2011-10-22 16:35:00
12:55 PM,50.0,37.4,62,30.00,10.0,West,9.2,-,N/A,,Mostly Cloudy,280,2011-10-22 16:55:00
1:35 PM,48.2,37.4,66,30.00,10.0,West,6.9,-,N/A,,Overcast,270,2011-10-22 17:35:00
1:55 PM,50.0,37.4,62,29.99,10.0,West,4.6,-,N/A,,Overcast,260,2011-10-22 17:55:00
2:15 PM,50.0,37.4,62,29.99,10.0,West,6.9,-,N/A,,Overcast,260,2011-10-22 18:15:00
2:35 PM,48.2,39.2,71,30.00,10.0,WNW,6.9,-,N/A,,Overcast,300,2011-10-22 18:35:00
2:55 PM,48.2,39.2,71,30.00,10.0,West,4.6,-,N/A,,Overcast,280,2011-10-22 18:55:00
3:15 PM,50.0,39.2,66,30.00,10.0,WNW,5.8,-,N/A,,Overcast,290,2011-10-22 19:15:00
3:35 PM,50.0,37.4,62,30.01,10.0,West,9.2,-,N/A,,Overcast,280,2011-10-22 19:35:00
3:55 PM,48.2,37.4,66,30.00,10.0,WSW,5.8,-,N/A,,Overcast,250,2011-10-22 19:55:00
4:15 PM,48.2,39.2,71,30.01,10.0,SW,3.5,-,N/A,,Overcast,230,2011-10-22 20:15:00
4:35 PM,48.2,39.2,71,30.01,10.0,WNW,4.6,-,N/A,,Overcast,290,2011-10-22 20:35:00
4:55 PM,48.2,37.4,66,30.01,10.0,Calm,Calm,-,N/A,,Overcast,0,2011-10-22 20:55:00
5:35 PM,48.2,39.2,71,30.01,10.0,Calm,Calm,-,N/A,,Overcast,0,2011-10-22 21:35:00
5:55 PM,48.2,39.2,71,30.02,10.0,Calm,Calm,-,N/A,,Overcast,0,2011-10-22 21:55:00
6:15 PM,48.2,39.2,71,30.02,10.0,SW,4.6,-,N/A,,Overcast,230,2011-10-22 22:15:00
6:35 PM,48.2,39.2,71,30.03,10.0,West,3.5,-,N/A,,Overcast,260,2011-10-22 22:35:00
6:55 PM,48.2,39.2,71,30.04,10.0,West,3.5,-,N/A,,Overcast,280,2011-10-22 22:55:00
7:15 PM,48.2,35.6,62,30.05,10.0,NW,5.8,-,N/A,,Overcast,310,2011-10-22 23:15:00
7:35 PM,48.2,35.6,62,30.05,10.0,Calm,Calm,-,N/A,,Overcast,0,2011-10-22 23:35:00
7:55 PM,48.2,35.6,62,30.05,10.0,Calm,Calm,-,N/A,,Overcast,0,2011-10-22 23:55:00
8:15 PM,48.2,35.6,62,30.05,10.0,NNW,4.6,-,N/A,,Overcast,340,2011-10-23 00:15:00
8:35 PM,46.4,37.4,71,30.06,10.0,North,-9999.0,-,N/A,,Overcast,0,2011-10-23 00:35:00
8:55 PM,46.4,37.4,71,30.06,10.0,North,3.5,-,N/A,,Overcast,350,2011-10-23 00:55:00
9:15 PM,46.4,37.4,71,30.07,10.0,North,3.5,-,N/A,,Overcast,350,2011-10-23 01:15:00
9:35 PM,46.4,37.4,71,30.07,10.0,Calm,Calm,-,N/A,,Overcast,0,2011-10-23 01:35:00
9:55 PM,46.4,37.4,71,30.07,10.0,Calm,Calm,-,N/A,,Overcast,0,2011-10-23 01:55:00
10:15 PM,46.4,39.2,76,30.07,10.0,Calm,Calm,-,N/A,,Overcast,0,2011-10-23 02:15:00
10:35 PM,44.6,39.2,81,30.08,10.0,SSE,3.5,-,N/A,,Overcast,150,2011-10-23 02:35:00
10:55 PM,44.6,39.2,81,30.08,10.0,Calm,Calm,-,N/A,,Overcast,0,2011-10-23 02:55:00
11:15 PM,44.6,39.2,81,30.08,10.0,SSE,3.5,-,N/A,,Overcast,150,2011-10-23 03:15:00
11:35 PM,44.6,39.2,81,30.08,10.0,Calm,Calm,-,N/A,,Overcast,0,2011-10-23 03:35:00